Showing default

LEMUR-2 POLO-11, 68493

Orbit data source: Space-Track

LEMUR-2 POLO-11, 68493 is a payload satellite owned by Spire (LU) in SSO that was launched on Mon, 30 Mar 2026 UTC via an FALCON 9 launch vehicle from the Air Force Western Test Range (AFWTR). Payload-class satellites include a variety of spacecraft equipped with specific instruments for various scientific and technological missions. These include communications satellites like Starlink; space stations such as the ISS; scientific satellites like the Hubble; Earth observation satellites from companies like Planet Labs, Umbra, and HawkEye 360; GPS; miniature CubeSats for education and research; and military/defense satellites.

Loading next visibility...
Identifier
68493, 2026-067CF
Orbit
SSO
Country
Flag of LULU / LUXE
Related business
Manufacturer
Spire/Glasgow
Mission
Operational Commercial Com/MetRO
Bus & Motor
CUBESAT 3U, Unknown motor
Mass
7.6 kg wet, 7.6 kg dry
Launch date (UTC)
2026-03-30 (5 months ago)
Launch vehicle
FALCON 9
Launch site
Air Force Western Test Range (AFWTR)
Object type
Payload
Rocket body
Debris
Shape & HBR
Box + 2 Pan, 0.2 m
Radar Cross Section
0.063 m², Medium (>0.1 m² and < 1m²)

Expand to show TLE details & history
Last TLE update: 8 hours ago

TLE from 8 hours ago
0 LEMUR-2 POLO-11
1 68493U 26067CF  26236.61080618  .00003152  00000-0  31429-3 0  9993
2 68493  97.7699 193.8993 0004448 134.1191 226.0395 14.92271850 21921
Epoch: 2026-08-24T14:39Z
TLE epoch observation values (Epoch: 2026-08-24T14:39:33.653Z)
Latitude
-0.00001°
Longitude
1.11905°
Altitude
596.049 km
Speed
7.561 km/s
True Right ascension
12h 55m 35s
True Declination
0° 00' 00"
Sunlit
Object was in daylight at epoch
Visualization orbit readout
Latitude
Unknown
Longitude
Unknown
Altitude
Unknown
Speed
Unknown
Apparent Right ascension
Unknown
Apparent Declination
Unknown
Sunlit
N/A
Visualization observer readout
Local Sidereal Time
13:53:18
Azimuth
Unknown
Elevation
Unknown
Doppler factor
Unknown
Orbital elements
Apogee altitude
590.971 km
Perigee altitude
584.774 km
Semi-major axis
6,966.009 km
Eccentricity
0.00044
Inclination
97.7699°
RAAN
193.8993°
Arg. of periapsis
134.1191°
True anomaly
226.00282°
Mean anomaly
226.0395°
Eccentric anomaly
226.02116°
Mean motion
3.73308 °/min
Orbital period
96.44 mins
BSTAR
0.00031429
Loading maneuver chart data...
Computing Atmospheric mass density...
Loading historical data...
Loading historical data...
Loading historical data...
Loading historical data...
Loading historical data...
Loading historical data...
Loading historical data...

Documentation

Showing up to 5 results
|